THORAD AGENA D DEB, 42490

Orbit data source: Space-Track

THORAD AGENA D DEB, 42490 is space debris in SSO originally from a launch on Wed, 08 Apr 1970 UTC launched from the Air Force Western Test Range (AFWTR). Debris objects in space refer to the collection of defunct objects orbiting the Earth. Examples of debris include non-operational satellites, rocket bodies, and fragments generated from explosions, collisions, or faulty payload assembly.

Loading next visibility...
Identifier
42490, 1970-025QU
Orbit
SSO
Country
Flag of USUS
Related business
Manufacturer
Unknown
Mission
Spacecraft
Bus & Motor
Unknown
Mass
Unknown
Launch date (UTC)
1970-04-08 (56 years ago)
Launch vehicle
Unknown
Launch site
Air Force Western Test Range (AFWTR)
Object type
Payload
Rocket body
Debris
Shape & HBR
Unknown shape, 0.1 m
Radar Cross Section
Small (<0.1 m²)

Expand to show TLE details & history
Last TLE update: 1 week ago

TLE from 1 week ago
0 THORAD AGENA D DEB
1 42490U 70025QU  26030.57563872  .00001314  00000-0  19539-2 0  9995
2 42490  99.9367 329.3629 0114126  87.5666 273.8530 13.53039818553946
Epoch: 2026-01-30T13:48Z
TLE epoch observation values (Epoch: 2026-01-30T13:48:55.185Z)
Latitude
0.00003°
Longitude
-7.67905°
Altitude
1,059.137 km
Speed
7.325 km/s
True Right ascension
21h 57m 27s
True Declination
0° 00' 00"
Sunlit
Object was in daylight at epoch
Visualization orbit readout
Latitude
Unknown
Longitude
Unknown
Altitude
Unknown
Speed
Unknown
Apparent Right ascension
Unknown
Apparent Declination
Unknown
Sunlit
N/A
Visualization observer readout
Local Sidereal Time
21:00:47
Azimuth
Unknown
Elevation
Unknown
Doppler factor
Unknown
Orbital elements
Apogee altitude
1,143.275 km
Perigee altitude
973.534 km
Semi-major axis
7,436.541 km
Eccentricity
0.01141
Inclination
99.9367°
RAAN
329.3629°
Arg. of periapsis
87.5666°
True anomaly
272.54703°
Mean anomaly
273.853°
Eccentric anomaly
273.20013°
Mean motion
3.38444 °/min
Orbital period
106.37 mins
BSTAR
0.0019539
Loading maneuver chart data...
Computing Atmospheric mass density...

Documentation

Showing up to 5 results
|